This is the latest recevied weather packets stored in our database for station/object KA1JKB. If no packets are shown the sender has not sent any weather packets the latest 10 day(s).
| Time | Temp. | Humidity | Pressure | Rain* | Wind** | Luminosity | Snow |
|---|---|---|---|---|---|---|---|
| 1787737269 | 11.11° C | 99% | 1013.8 hPa | 0 mm | - | 0 W/m² | - |
| 1787736964 | 11.67° C | 99% | 1014.1 hPa | 0 mm | - | 0 W/m² | - |
| 1787736660 | 12.22° C | 99% | 1013.9 hPa | 0 mm | - | 0 W/m² | - |
| 1787736355 | 12.22° C | 99% | 1014 hPa | 0 mm | - | 0 W/m² | - |
| 1787736054 | 12.22° C | 99% | 1014.1 hPa | 0 mm | - | 0 W/m² | - |
| 1787735753 | 12.22° C | 99% | 1014.1 hPa | 0 mm | - | 0 W/m² | - |
| 1787735449 | 12.78° C | 99% | 1014 hPa | 0 mm | - | 0 W/m² | - |
| 1787735148 | 12.78° C | 99% | 1014.2 hPa | 0 mm | - | 0 W/m² | - |
| 1787734843 | 12.78° C | 99% | 1014.1 hPa | 0 mm | - | 0 W/m² | - |
| 1787734543 | 12.78° C | 99% | 1014.4 hPa | 0 mm | - | 0 W/m² | - |
| 1787734239 | 12.22° C | 99% | 1014.4 hPa | 0 mm | - | 0 W/m² | - |
| 1787733938 | 12.78° C | 99% | 1014.6 hPa | 0 mm | - | 0 W/m² | - |
| 1787733638 | 12.78° C | 99% | 1014.4 hPa | 0 mm | - | 0 W/m² | - |
| 1787733334 | 13.33° C | 99% | 1014.6 hPa | 0 mm | - | 0 W/m² | - |
| 1787733030 | 13.33° C | 99% | 1014.7 hPa | 0 mm | - | 0 W/m² | - |
| 1787732730 | 13.33° C | 99% | 1014.7 hPa | 0 mm | - | 0 W/m² | - |
| 1787732430 | 13.33° C | 99% | 1014.7 hPa | 0 mm | - | 0 W/m² | - |
| 1787732125 | 12.78° C | 99% | 1014.9 hPa | 0 mm | - | 0 W/m² | - |
| 1787731823 | 13.33° C | 99% | 1014.8 hPa | 0 mm | - | 0 W/m² | - |
| 1787731522 | 13.33° C | 99% | 1014.9 hPa | 0 mm | - | 0 W/m² | - |
| 1787731217 | 13.33° C | 99% | 1014.7 hPa | 0 mm | - | 0 W/m² | - |
| 1787730912 | 13.33° C | 99% | 1014.9 hPa | 0 mm | - | 0 W/m² | - |
| 1787730607 | 13.33° C | 99% | 1014.8 hPa | 0 mm | - | 0 W/m² | - |
| 1787730306 | 13.33° C | 99% | 1014.7 hPa | 0 mm | - | 0 W/m² | - |
| 1787730001 | 13.33° C | 99% | 1014.9 hPa | 0 mm | - | 0 W/m² | - |
* Rain latest hour (hover to see other rain measurements)
** Current wind speed in m/s (hover to see current wind gust speed)